Tracking 19562 objects as of 25-Mar-2019
HD Live streaming from Space Station
objects crossing your sky now

UNIFORM 1

Track UNIFORM 1 now!
10-day predictions
UNIFORM 1 is classified as:


NORAD ID: 39767
Int'l Code: 2014-029B
Perigee: 620.5 km
Apogee: 629.2 km
Inclination: 97.9 °
Period: 97.1 minutes
Semi major axis: 6995 km
RCS: Unknown
Launch date: May 24, 2014
Source: Japan (JPN)
Launch site: TANEGASHIMA SPACE CENTER (TNSTA)

Uplink (MHz):
Downlink (MHz): 2228.000
Beacon (MHz):
Mode:
Call sign:
Status:

aabbcc
Your satellite tracking list
Your tracking list is empty




NASA's NSSDC Master Catalog

Two Line Element Set (TLE):
1 39767U 14029B   19083.86400495  .00000137  00000-0  23027-4 0  9994
2 39767  97.8537 179.8244 0006230   4.3192 355.8065 14.83691022261690
Source of the keplerian elements: AFSPC